Time,TemperatureF,DewpointF,PressureIn,WindDirection,WindDirectionDegrees,WindSpeedMPH,WindSpeedGustMPH,Humidity,HourlyPrecipIn,Conditions,Clouds,dailyrainin,SoftwareType,DateUTC
2013-01-13 00:00:00,2.7,-2.0,30.12,NW,307,2.0,12.0,80,0.00,,---,0.00,VWS V14.00,2013-01-13 06:00:00,
2013-01-13 00:03:00,2.6,-2.2,30.12,NW,314,4.0,6.0,80,0.00,,---,0.00,VWS V14.00,2013-01-13 06:03:00,
2013-01-13 00:08:00,2.6,-2.2,30.12,WNW,301,3.0,6.0,80,0.00,,---,0.00,VWS V14.00,2013-01-13 06:08:00,
2013-01-13 00:13:00,2.5,-2.2,30.12,NW,309,2.0,6.0,80,0.00,,---,0.00,VWS V14.00,2013-01-13 06:13:00,
2013-01-13 00:18:00,2.5,-2.0,30.12,WNW,300,1.0,6.0,81,0.00,,---,0.00,VWS V14.00,2013-01-13 06:18:00,
2013-01-13 00:23:00,2.4,-2.1,30.12,WNW,300,1.0,6.0,81,0.00,,---,0.00,VWS V14.00,2013-01-13 06:23:00,
2013-01-13 00:28:00,2.4,-2.1,30.12,NW,306,0.0,2.0,81,0.00,,---,0.00,VWS V14.00,2013-01-13 06:28:00,
2013-01-13 00:30:00,2.4,-2.1,30.12,NW,306,2.0,6.0,81,0.00,,---,0.00,VWS V14.00,2013-01-13 06:30:00,
2013-01-13 00:33:00,2.3,-2.2,30.12,NW,306,3.0,4.0,81,0.00,,---,0.00,VWS V14.00,2013-01-13 06:33:00,
2013-01-13 00:38:00,2.2,-2.0,30.11,NW,307,2.0,4.0,82,0.00,,---,0.00,VWS V14.00,2013-01-13 06:38:00,
2013-01-13 00:43:00,2.2,-2.3,30.12,NW,307,0.0,4.0,81,0.00,,---,0.00,VWS V14.00,2013-01-13 06:43:00,
2013-01-13 00:48:00,2.2,-2.0,30.11,NW,306,2.0,4.0,82,0.00,,---,0.00,VWS V14.00,2013-01-13 06:48:00,
2013-01-13 00:53:00,2.2,0.4,30.11,NW,307,1.0,4.0,92,0.00,,---,0.00,VWS V14.00,2013-01-13 06:53:00,
2013-01-13 00:58:00,2.1,0.3,30.11,NW,307,2.0,3.0,92,0.00,,---,0.00,VWS V14.00,2013-01-13 06:58:00,
2013-01-13 01:00:00,2.1,0.3,30.11,NW,307,0.0,4.0,92,0.00,,---,0.00,VWS V14.00,2013-01-13 07:00:00,
2013-01-13 01:03:00,2.0,-2.2,30.11,NW,307,0.0,3.0,82,0.00,,---,0.00,VWS V14.00,2013-01-13 07:03:00,
2013-01-13 01:08:00,2.0,-2.2,30.12,NW,307,0.0,3.0,82,0.00,,---,0.00,VWS V14.00,2013-01-13 07:08:00,
2013-01-13 01:13:00,2.0,-2.2,30.12,NW,307,0.0,3.0,82,0.00,,---,0.00,VWS V14.00,2013-01-13 07:13:00,
2013-01-13 01:18:00,1.9,-2.3,30.12,NW,307,0.0,3.0,82,0.00,,---,0.00,VWS V14.00,2013-01-13 07:18:00,
2013-01-13 01:23:00,1.8,-2.4,30.12,NW,307,0.0,3.0,82,0.00,,---,0.00,VWS V14.00,2013-01-13 07:23:00,
2013-01-13 01:28:00,1.7,-2.3,30.13,NW,307,0.0,0.0,83,0.00,,---,0.00,VWS V14.00,2013-01-13 07:28:00,
2013-01-13 01:30:00,1.7,-2.5,30.13,NW,307,0.0,3.0,82,0.00,,---,0.00,VWS V14.00,2013-01-13 07:30:00,
2013-01-13 01:33:00,1.5,-2.5,30.13,NW,307,0.0,0.0,83,0.00,,---,0.00,VWS V14.00,2013-01-13 07:33:00,
2013-01-13 01:38:00,1.5,-2.5,30.13,NW,307,0.0,0.0,83,0.00,,---,0.00,VWS V14.00,2013-01-13 07:38:00,
2013-01-13 01:43:00,1.4,-2.5,30.12,NW,307,0.0,0.0,83,0.00,,---,0.00,VWS V14.00,2013-01-13 07:43:00,
2013-01-13 01:48:00,1.4,-2.3,30.12,NW,307,0.0,0.0,84,0.00,,---,0.00,VWS V14.00,2013-01-13 07:48:00,
2013-01-13 01:53:00,1.4,-2.3,30.12,NW,307,0.0,0.0,84,0.00,,---,0.00,VWS V14.00,2013-01-13 07:53:00,
2013-01-13 01:58:00,1.4,-2.3,30.12,NW,307,0.0,0.0,84,0.00,,---,0.00,VWS V14.00,2013-01-13 07:58:00,
2013-01-13 02:00:00,1.4,-2.3,30.12,NW,307,0.0,0.0,84,0.00,,---,0.00,VWS V14.00,2013-01-13 08:00:00,
2013-01-13 02:03:00,1.5,-2.2,30.12,NW,307,1.0,2.0,84,0.00,,---,0.00,VWS V14.00,2013-01-13 08:03:00,
2013-01-13 02:08:00,1.4,-2.3,30.12,NW,307,0.0,2.0,84,0.00,,---,0.00,VWS V14.00,2013-01-13 08:08:00,
2013-01-13 02:13:00,1.4,-2.3,30.12,NW,307,1.0,3.0,84,0.00,,---,0.00,VWS V14.00,2013-01-13 08:13:00,
2013-01-13 02:18:00,1.4,-2.3,30.12,NW,307,0.0,3.0,84,0.00,,---,0.00,VWS V14.00,2013-01-13 08:18:00,
2013-01-13 02:23:00,1.4,-2.3,30.12,NW,307,0.0,3.0,84,0.00,,---,0.00,VWS V14.00,2013-01-13 08:23:00,
2013-01-13 02:28:00,1.4,-2.3,30.11,NW,307,0.0,0.0,84,0.00,,---,0.00,VWS V14.00,2013-01-13 08:28:00,
2013-01-13 02:30:00,1.4,-2.3,30.12,NW,307,0.0,3.0,84,0.00,,---,0.00,VWS V14.00,2013-01-13 08:30:00,
2013-01-13 02:33:00,1.4,-2.3,30.12,NW,307,0.0,0.0,84,0.00,,---,0.00,VWS V14.00,2013-01-13 08:33:00,
2013-01-13 02:38:00,1.4,-2.3,30.11,NW,307,0.0,0.0,84,0.00,,---,0.00,VWS V14.00,2013-01-13 08:38:00,
2013-01-13 02:43:00,1.4,-2.3,30.12,NW,307,0.0,0.0,84,0.00,,---,0.00,VWS V14.00,2013-01-13 08:43:00,
2013-01-13 02:48:00,1.3,-2.7,30.12,NW,307,0.0,0.0,83,0.00,,---,0.00,VWS V14.00,2013-01-13 08:48:00,
2013-01-13 02:53:00,1.3,-2.7,30.12,NW,307,0.0,0.0,83,0.00,,---,0.00,VWS V14.00,2013-01-13 08:53:00,
2013-01-13 02:58:00,1.3,-2.7,30.12,NW,307,0.0,0.0,83,0.00,,---,0.00,VWS V14.00,2013-01-13 08:58:00,
2013-01-13 03:00:00,1.3,-2.7,30.12,NW,307,0.0,0.0,83,0.00,,---,0.00,VWS V14.00,2013-01-13 09:00:00,
2013-01-13 03:03:00,1.3,-2.7,30.12,NW,307,1.0,3.0,83,0.00,,---,0.00,VWS V14.00,2013-01-13 09:03:00,
2013-01-13 03:08:00,1.3,-2.7,30.12,NW,307,1.0,3.0,83,0.00,,---,0.00,VWS V14.00,2013-01-13 09:08:00,
2013-01-13 03:13:00,1.4,-2.5,30.12,NW,307,0.0,3.0,83,0.00,,---,0.00,VWS V14.00,2013-01-13 09:13:00,
2013-01-13 03:18:00,1.4,-2.8,30.12,NW,307,1.0,3.0,82,0.00,,---,0.00,VWS V14.00,2013-01-13 09:18:00,
2013-01-13 03:23:00,1.4,-2.8,30.12,NW,307,2.0,4.0,82,0.00,,---,0.00,VWS V14.00,2013-01-13 09:23:00,
2013-01-13 03:28:00,1.4,-2.8,30.12,NW,307,3.0,3.0,82,0.00,,---,0.00,VWS V14.00,2013-01-13 09:28:00,
2013-01-13 03:30:00,1.4,-2.8,30.12,NW,307,1.0,4.0,82,0.00,,---,0.00,VWS V14.00,2013-01-13 09:30:00,
2013-01-13 03:33:00,1.4,-2.8,30.12,NW,307,2.0,4.0,82,0.00,,---,0.00,VWS V14.00,2013-01-13 09:33:00,
2013-01-13 03:38:00,1.4,-2.8,30.11,NW,307,3.0,4.0,82,0.00,,---,0.00,VWS V14.00,2013-01-13 09:38:00,
2013-01-13 03:43:00,1.4,-2.8,30.12,NW,307,1.0,4.0,82,0.00,,---,0.00,VWS V14.00,2013-01-13 09:43:00,
2013-01-13 03:48:00,1.4,-2.8,30.12,NW,307,0.0,4.0,82,0.00,,---,0.00,VWS V14.00,2013-01-13 09:48:00,
2013-01-13 03:53:00,1.4,-2.8,30.12,NW,307,2.0,4.0,82,0.00,,---,0.00,VWS V14.00,2013-01-13 09:53:00,
2013-01-13 03:58:00,1.4,-2.8,30.12,NW,307,0.0,0.0,82,0.00,,---,0.00,VWS V14.00,2013-01-13 09:58:00,
2013-01-13 04:00:00,1.4,-2.8,30.12,NW,307,0.0,4.0,82,0.00,,---,0.00,VWS V14.00,2013-01-13 10:00:00,
2013-01-13 04:03:00,1.3,-2.9,30.12,NW,307,0.0,2.0,82,0.00,,---,0.00,VWS V14.00,2013-01-13 10:03:00,
2013-01-13 04:08:00,1.2,-3.0,30.13,NW,307,0.0,2.0,82,0.00,,---,0.00,VWS V14.00,2013-01-13 10:08:00,
2013-01-13 04:13:00,1.1,-3.1,30.13,NW,309,3.0,5.0,82,0.00,,---,0.00,VWS V14.00,2013-01-13 10:13:00,
2013-01-13 04:18:00,1.2,-3.0,30.14,WNW,301,0.0,5.0,82,0.00,,---,0.00,VWS V14.00,2013-01-13 10:18:00,
2013-01-13 04:23:00,1.2,-3.0,30.13,WNW,302,0.0,5.0,82,0.00,,---,0.00,VWS V14.00,2013-01-13 10:23:00,
2013-01-13 04:28:00,1.1,-3.1,30.13,WNW,302,1.0,2.0,82,0.00,,---,0.00,VWS V14.00,2013-01-13 10:28:00,
2013-01-13 04:30:00,1.1,-3.1,30.13,WNW,302,0.0,5.0,82,0.00,,---,0.00,VWS V14.00,2013-01-13 10:30:00,
2013-01-13 04:33:00,1.0,-3.2,30.13,NW,304,3.0,4.0,82,0.00,,---,0.00,VWS V14.00,2013-01-13 10:33:00,
2013-01-13 04:38:00,1.0,-3.2,30.14,NW,310,3.0,6.0,82,0.00,,---,0.00,VWS V14.00,2013-01-13 10:38:00,
2013-01-13 04:43:00,0.9,-3.3,30.14,NW,305,2.0,6.0,82,0.00,,---,0.00,VWS V14.00,2013-01-13 10:43:00,
2013-01-13 04:48:00,0.9,-3.3,30.13,WNW,302,1.0,6.0,82,0.00,,---,0.00,VWS V14.00,2013-01-13 10:48:00,
2013-01-13 04:53:00,0.8,-3.4,30.13,NW,309,2.0,6.0,82,0.00,,---,0.00,VWS V14.00,2013-01-13 10:53:00,
2013-01-13 04:58:00,0.8,-3.4,30.14,NW,308,0.0,0.0,82,0.00,,---,0.00,VWS V14.00,2013-01-13 10:58:00,
2013-01-13 05:00:00,0.8,-3.4,30.14,NW,308,0.0,6.0,82,0.00,,---,0.00,VWS V14.00,2013-01-13 11:00:00,
2013-01-13 05:03:00,0.7,-3.5,30.14,NW,308,0.0,0.0,82,0.00,,---,0.00,VWS V14.00,2013-01-13 11:03:00,
2013-01-13 05:08:00,0.6,-3.6,30.14,NW,312,2.0,4.0,82,0.00,,---,0.00,VWS V14.00,2013-01-13 11:08:00,
2013-01-13 05:13:00,0.5,-3.7,30.14,NW,308,2.0,4.0,82,0.00,,---,0.00,VWS V14.00,2013-01-13 11:13:00,
2013-01-13 05:18:00,0.5,-3.7,30.14,NW,304,4.0,5.0,82,0.00,,---,0.00,VWS V14.00,2013-01-13 11:18:00,
2013-01-13 05:23:00,0.4,-4.0,30.13,NW,306,3.0,6.0,81,0.00,,---,0.00,VWS V14.00,2013-01-13 11:23:00,
2013-01-13 05:28:00,0.4,-3.8,30.14,NW,307,6.0,10.0,82,0.00,,---,0.00,VWS V14.00,2013-01-13 11:28:00,
2013-01-13 05:30:00,0.4,-3.8,30.13,NW,304,7.0,9.0,82,0.00,,---,0.00,VWS V14.00,2013-01-13 11:30:00,
2013-01-13 05:33:00,0.4,-4.0,30.14,NW,311,7.0,10.0,81,0.00,,---,0.00,VWS V14.00,2013-01-13 11:33:00,
2013-01-13 05:38:00,0.4,-4.0,30.14,NW,321,2.0,11.0,81,0.00,,---,0.00,VWS V14.00,2013-01-13 11:38:00,
2013-01-13 05:43:00,0.5,-3.9,30.14,NW,323,2.0,11.0,81,0.00,,---,0.00,VWS V14.00,2013-01-13 11:43:00,
2013-01-13 05:48:00,0.6,-3.8,30.14,NW,317,7.0,11.0,81,0.00,,---,0.00,VWS V14.00,2013-01-13 11:48:00,
2013-01-13 05:53:00,0.7,-3.8,30.15,NNW,329,2.0,11.0,81,0.00,,---,0.00,VWS V14.00,2013-01-13 11:53:00,
2013-01-13 05:58:00,0.8,-3.7,30.15,NW,325,2.0,3.0,81,0.00,,---,0.00,VWS V14.00,2013-01-13 11:58:00,
2013-01-13 06:00:00,0.8,-3.7,30.15,NW,326,2.0,11.0,81,0.00,,---,0.00,VWS V14.00,2013-01-13 12:00:00,
2013-01-13 06:03:00,0.8,-3.7,30.15,NW,324,2.0,9.0,81,0.00,,---,0.00,VWS V14.00,2013-01-13 12:03:00,
2013-01-13 06:08:00,0.9,-3.5,30.15,NW,313,4.0,9.0,81,0.00,,---,0.00,VWS V14.00,2013-01-13 12:08:00,
2013-01-13 06:13:00,1.0,-3.7,30.16,NW,306,5.0,9.0,80,0.00,,---,0.00,VWS V14.00,2013-01-13 12:13:00,
2013-01-13 06:18:00,1.0,-3.7,30.16,NW,304,6.0,10.0,80,0.00,,---,0.00,VWS V14.00,2013-01-13 12:18:00,
2013-01-13 06:23:00,1.1,-3.6,30.16,NW,325,4.0,10.0,80,0.00,,---,0.00,VWS V14.00,2013-01-13 12:23:00,
2013-01-13 06:28:00,1.3,-3.4,30.16,NW,307,4.0,5.0,80,0.00,,---,0.00,VWS V14.00,2013-01-13 12:28:00,
2013-01-13 06:30:00,1.2,-3.5,30.16,NW,311,3.0,10.0,80,0.00,,---,0.00,VWS V14.00,2013-01-13 12:30:00,
2013-01-13 06:33:00,1.3,-3.4,30.16,NNW,330,4.0,7.0,80,0.00,,---,0.00,VWS V14.00,2013-01-13 12:33:00,
2013-01-13 06:38:00,1.4,-3.3,30.17,NW,317,1.0,7.0,80,0.00,,---,0.00,VWS V14.00,2013-01-13 12:38:00,
2013-01-13 06:43:00,1.5,-3.0,30.17,NNW,338,3.0,7.0,81,0.00,,---,0.00,VWS V14.00,2013-01-13 12:43:00,
2013-01-13 06:48:00,1.6,-2.9,30.17,NW,315,1.0,7.0,81,0.00,,---,0.00,VWS V14.00,2013-01-13 12:48:00,
2013-01-13 06:53:00,1.7,-2.8,30.17,NW,320,1.0,7.0,81,0.00,,---,0.00,VWS V14.00,2013-01-13 12:53:00,
2013-01-13 06:58:00,1.8,-2.7,30.17,NW,314,1.0,2.0,81,0.00,,---,0.00,VWS V14.00,2013-01-13 12:58:00,
2013-01-13 07:00:00,1.8,-2.7,30.17,NW,314,1.0,7.0,81,0.00,,---,0.00,VWS V14.00,2013-01-13 13:00:00,
2013-01-13 07:03:00,1.7,-3.0,30.18,NW,309,3.0,4.0,80,0.00,,---,0.00,VWS V14.00,2013-01-13 13:03:00,
2013-01-13 07:08:00,1.8,-2.9,30.17,NW,311,3.0,5.0,80,0.00,,---,0.00,VWS V14.00,2013-01-13 13:08:00,
2013-01-13 07:13:00,1.7,-3.0,30.17,NW,318,2.0,5.0,80,0.00,,---,0.00,VWS V14.00,2013-01-13 13:13:00,
2013-01-13 07:18:00,1.8,-2.9,30.18,WNW,303,4.0,6.0,80,0.00,,---,0.00,VWS V14.00,2013-01-13 13:18:00,
2013-01-13 07:23:00,1.8,-2.9,30.18,NW,311,4.0,6.0,80,0.00,,---,0.00,VWS V14.00,2013-01-13 13:23:00,
2013-01-13 07:28:00,1.7,-3.0,30.18,NW,324,4.0,4.0,80,0.00,,---,0.00,VWS V14.00,2013-01-13 13:28:00,
2013-01-13 07:30:00,1.7,-3.0,30.18,NW,325,3.0,6.0,80,0.00,,---,0.00,VWS V14.00,2013-01-13 13:30:00,
2013-01-13 07:33:00,1.7,-3.0,30.18,NW,315,6.0,6.0,80,0.00,,---,0.00,VWS V14.00,2013-01-13 13:33:00,
2013-01-13 07:38:00,1.7,-3.0,30.19,NNW,344,3.0,7.0,80,0.00,,---,0.00,VWS V14.00,2013-01-13 13:38:00,
2013-01-13 07:42:00,1.7,-3.0,30.19,NW,306,4.0,7.0,80,0.00,,---,0.00,VWS V14.00,2013-01-13 13:42:00,
2013-01-13 07:47:00,1.7,-3.0,30.19,NW,309,5.0,7.0,80,0.00,,---,0.00,VWS V14.00,2013-01-13 13:47:00,
2013-01-13 07:52:00,1.7,-3.0,30.19,NW,306,4.0,7.0,80,0.00,,---,0.00,VWS V14.00,2013-01-13 13:52:00,
2013-01-13 07:57:00,1.7,-3.0,30.19,NNW,334,4.0,4.0,80,0.00,,---,0.00,VWS V14.00,2013-01-13 13:57:00,
2013-01-13 08:00:00,1.7,-3.0,30.19,NNW,334,2.0,7.0,80,0.00,,---,0.00,VWS V14.00,2013-01-13 14:00:00,
2013-01-13 08:02:00,1.8,-2.9,30.20,NW,313,4.0,5.0,80,0.00,,---,0.00,VWS V14.00,2013-01-13 14:02:00,
2013-01-13 08:07:00,1.8,-2.9,30.20,NNW,327,0.0,5.0,80,0.00,,---,0.00,VWS V14.00,2013-01-13 14:07:00,
2013-01-13 08:12:00,1.9,-2.8,30.20,NW,323,2.0,5.0,80,0.00,,---,0.00,VWS V14.00,2013-01-13 14:12:00,
2013-01-13 08:17:00,2.0,-2.7,30.20,NW,320,3.0,6.0,80,0.00,,---,0.00,VWS V14.00,2013-01-13 14:17:00,
2013-01-13 08:22:00,2.0,-2.7,30.21,NNW,329,1.0,6.0,80,0.00,,---,0.00,VWS V14.00,2013-01-13 14:22:00,
2013-01-13 08:27:00,2.0,-2.7,30.21,NW,305,4.0,4.0,80,0.00,,---,0.00,VWS V14.00,2013-01-13 14:27:00,
2013-01-13 08:30:00,2.0,-2.7,30.21,NNW,327,4.0,6.0,80,0.00,,---,0.00,VWS V14.00,2013-01-13 14:30:00,
2013-01-13 08:32:00,2.0,-2.7,30.22,NNW,334,4.0,6.0,80,0.00,,---,0.00,VWS V14.00,2013-01-13 14:32:00,
2013-01-13 08:37:00,2.0,-2.7,30.22,NNW,346,6.0,6.0,80,0.00,,---,0.00,VWS V14.00,2013-01-13 14:37:00,
2013-01-13 08:42:00,2.0,-2.7,30.22,North,355,6.0,7.0,80,0.00,,---,0.00,VWS V14.00,2013-01-13 14:42:00,
2013-01-13 08:47:00,2.0,-2.7,30.22,NNW,342,6.0,8.0,80,0.00,,---,0.00,VWS V14.00,2013-01-13 14:47:00,
2013-01-13 08:52:00,2.0,-2.7,30.23,NNW,331,3.0,9.0,80,0.00,,---,0.00,VWS V14.00,2013-01-13 14:52:00,
2013-01-13 08:57:00,2.2,-2.5,30.23,NNW,340,3.0,4.0,80,0.00,,---,0.00,VWS V14.00,2013-01-13 14:57:00,
2013-01-13 09:00:00,2.2,-2.5,30.23,NNW,340,4.0,9.0,80,0.00,,---,0.00,VWS V14.00,2013-01-13 15:00:00,
2013-01-13 09:02:00,2.2,-2.5,30.23,NW,309,2.0,6.0,80,0.00,,---,0.00,VWS V14.00,2013-01-13 15:02:00,
2013-01-13 09:07:00,2.3,-2.4,30.23,NNW,340,3.0,6.0,80,0.00,,---,0.00,VWS V14.00,2013-01-13 15:07:00,
2013-01-13 09:12:00,2.4,-2.3,30.23,NNW,344,4.0,6.0,80,0.00,,---,0.00,VWS V14.00,2013-01-13 15:12:00,
2013-01-13 09:17:00,2.5,-2.0,30.23,NNW,341,2.0,6.0,81,0.00,,---,0.00,VWS V14.00,2013-01-13 15:17:00,
2013-01-13 09:22:00,2.5,-2.0,30.23,NNW,327,2.0,6.0,81,0.00,,---,0.00,VWS V14.00,2013-01-13 15:22:00,
2013-01-13 09:27:00,2.6,-1.9,30.23,NW,305,1.0,3.0,81,0.00,,---,0.00,VWS V14.00,2013-01-13 15:27:00,
2013-01-13 09:30:00,2.6,-1.9,30.23,NW,305,2.0,6.0,81,0.00,,---,0.00,VWS V14.00,2013-01-13 15:30:00,
2013-01-13 09:32:00,2.6,-1.9,30.23,NW,304,1.0,5.0,81,0.00,,---,0.00,VWS V14.00,2013-01-13 15:32:00,
2013-01-13 09:37:00,2.5,-2.0,30.23,NW,304,4.0,5.0,81,0.00,,---,0.00,VWS V14.00,2013-01-13 15:37:00,
2013-01-13 09:42:00,2.4,-2.1,30.23,NW,309,5.0,6.0,81,0.00,,---,0.00,VWS V14.00,2013-01-13 15:42:00,
2013-01-13 09:47:00,2.4,-2.1,30.24,NW,309,0.0,6.0,81,0.00,,---,0.00,VWS V14.00,2013-01-13 15:47:00,
2013-01-13 09:52:00,2.5,-2.0,30.24,NW,315,2.0,6.0,81,0.00,,---,0.00,VWS V14.00,2013-01-13 15:52:00,
2013-01-13 09:57:00,2.6,-1.9,30.24,NW,324,1.0,2.0,81,0.00,,---,0.00,VWS V14.00,2013-01-13 15:57:00,
2013-01-13 10:00:00,2.6,-1.9,30.24,NW,324,1.0,6.0,81,0.00,,---,0.00,VWS V14.00,2013-01-13 16:00:00,
2013-01-13 10:02:00,2.8,-1.4,30.23,NW,322,3.0,5.0,82,0.00,,---,0.00,VWS V14.00,2013-01-13 16:02:00,
2013-01-13 10:07:00,2.9,1.1,30.23,NW,319,0.0,5.0,92,0.00,,---,0.00,VWS V14.00,2013-01-13 16:07:00,
2013-01-13 10:12:00,2.9,-1.3,30.23,NW,311,1.0,5.0,82,0.00,,---,0.00,VWS V14.00,2013-01-13 16:12:00,
2013-01-13 10:17:00,2.9,-1.6,30.23,NW,312,2.0,5.0,81,0.00,,---,0.00,VWS V14.00,2013-01-13 16:17:00,
2013-01-13 10:22:00,2.9,-1.6,30.23,NW,323,2.0,6.0,81,0.00,,---,0.00,VWS V14.00,2013-01-13 16:22:00,
2013-01-13 10:27:00,3.0,-1.5,30.23,NW,306,2.0,5.0,81,0.00,,---,0.00,VWS V14.00,2013-01-13 16:27:00,
2013-01-13 10:30:00,3.0,-1.5,30.23,NW,304,5.0,6.0,81,0.00,,---,0.00,VWS V14.00,2013-01-13 16:30:00,
2013-01-13 10:32:00,3.1,-1.4,30.22,NW,306,2.0,5.0,81,0.00,,---,0.00,VWS V14.00,2013-01-13 16:32:00,
2013-01-13 10:37:00,3.2,-1.0,30.22,NW,326,3.0,5.0,82,0.00,,---,0.00,VWS V14.00,2013-01-13 16:37:00,
2013-01-13 10:42:00,3.3,-1.2,30.21,WNW,302,4.0,7.0,81,0.00,,---,0.00,VWS V14.00,2013-01-13 16:42:00,
2013-01-13 10:47:00,3.3,-1.2,30.21,West,281,5.0,7.0,81,0.00,,---,0.00,VWS V14.00,2013-01-13 16:47:00,
2013-01-13 10:52:00,3.5,-1.0,30.21,WNW,298,1.0,7.0,81,0.00,,---,0.00,VWS V14.00,2013-01-13 16:52:00,
2013-01-13 10:57:00,3.6,-1.2,30.20,NNW,332,5.0,6.0,80,0.00,,---,0.00,VWS V14.00,2013-01-13 16:57:00,
2013-01-13 11:00:00,3.6,-1.2,30.20,NNW,329,4.0,8.0,80,0.00,,---,0.00,VWS V14.00,2013-01-13 17:00:00,
2013-01-13 11:02:00,3.7,-1.1,30.20,NW,313,2.0,7.0,80,0.00,,---,0.00,VWS V14.00,2013-01-13 17:02:00,
2013-01-13 11:07:00,3.8,-1.0,30.20,NW,323,5.0,7.0,80,0.00,,---,0.00,VWS V14.00,2013-01-13 17:07:00,
2013-01-13 11:12:00,4.1,-0.7,30.19,NW,306,2.0,7.0,80,0.00,,---,0.00,VWS V14.00,2013-01-13 17:12:00,
2013-01-13 11:17:00,4.3,-0.8,30.19,NW,323,2.0,7.0,79,0.00,,---,0.00,VWS V14.00,2013-01-13 17:17:00,
2013-01-13 11:22:00,4.5,-0.6,30.19,WNW,303,4.0,9.0,79,0.00,,---,0.00,VWS V14.00,2013-01-13 17:22:00,
2013-01-13 11:27:00,4.6,-0.5,30.18,NNW,332,9.0,9.0,79,0.00,,---,0.00,VWS V14.00,2013-01-13 17:27:00,
2013-01-13 11:30:00,4.6,-0.5,30.18,NW,311,6.0,9.0,79,0.00,,---,0.00,VWS V14.00,2013-01-13 17:30:00,
2013-01-13 11:32:00,4.9,-0.2,30.18,NW,311,4.0,9.0,79,0.00,,---,0.00,VWS V14.00,2013-01-13 17:32:00,
2013-01-13 11:37:00,5.0,-0.3,30.18,WNW,300,5.0,10.0,78,0.00,,---,0.00,VWS V14.00,2013-01-13 17:37:00,
2013-01-13 11:42:00,5.0,-0.3,30.17,North,355,7.0,10.0,78,0.00,,---,0.00,VWS V14.00,2013-01-13 17:42:00,
2013-01-13 11:47:00,5.2,-0.2,30.17,NNW,329,10.0,12.0,78,0.00,,---,0.00,VWS V14.00,2013-01-13 17:47:00,
2013-01-13 11:52:00,5.2,-0.2,30.18,NW,308,4.0,12.0,78,0.00,,---,0.00,VWS V14.00,2013-01-13 17:52:00,
2013-01-13 11:57:00,5.2,-0.2,30.17,NW,306,4.0,5.0,78,0.00,,---,0.00,VWS V14.00,2013-01-13 17:57:00,
2013-01-13 12:00:00,5.2,-0.2,30.17,NW,319,4.0,12.0,78,0.00,,---,0.00,VWS V14.00,2013-01-13 18:00:00,
2013-01-13 12:02:00,5.5,0.4,30.17,NW,318,2.0,6.0,79,0.00,,---,0.00,VWS V14.00,2013-01-13 18:02:00,
2013-01-13 12:07:00,5.6,0.2,30.17,NW,304,4.0,9.0,78,0.00,,---,0.00,VWS V14.00,2013-01-13 18:07:00,
2013-01-13 12:12:00,5.6,0.2,30.17,WNW,288,2.0,9.0,78,0.00,,---,0.00,VWS V14.00,2013-01-13 18:12:00,
2013-01-13 12:17:00,5.5,0.1,30.17,WNW,301,6.0,9.0,78,0.00,,---,0.00,VWS V14.00,2013-01-13 18:17:00,
2013-01-13 12:22:00,5.5,0.1,30.17,NW,313,4.0,9.0,78,0.00,,---,0.00,VWS V14.00,2013-01-13 18:22:00,
2013-01-13 12:27:00,5.6,0.5,30.17,WNW,296,1.0,3.0,79,0.00,,---,0.00,VWS V14.00,2013-01-13 18:27:00,
2013-01-13 12:30:00,5.6,0.5,30.17,WNW,296,1.0,9.0,79,0.00,,---,0.00,VWS V14.00,2013-01-13 18:30:00,
2013-01-13 12:32:00,5.8,0.4,30.17,NW,321,4.0,11.0,78,0.00,,---,0.00,VWS V14.00,2013-01-13 18:32:00,
2013-01-13 12:37:00,5.8,0.4,30.16,NW,312,5.0,11.0,78,0.00,,---,0.00,VWS V14.00,2013-01-13 18:37:00,
2013-01-13 12:42:00,5.8,0.4,30.17,WNW,301,5.0,11.0,78,0.00,,---,0.00,VWS V14.00,2013-01-13 18:42:00,
2013-01-13 12:47:00,5.9,0.5,30.16,NNW,327,3.0,11.0,78,0.00,,---,0.00,VWS V14.00,2013-01-13 18:47:00,
2013-01-13 12:52:00,6.0,0.6,30.17,NW,312,5.0,11.0,78,0.00,,---,0.00,VWS V14.00,2013-01-13 18:52:00,
2013-01-13 12:57:00,6.1,0.7,30.16,NW,311,3.0,5.0,78,0.00,,---,0.00,VWS V14.00,2013-01-13 18:57:00,
2013-01-13 13:00:00,6.1,0.7,30.16,WNW,295,4.0,11.0,78,0.00,,---,0.00,VWS V14.00,2013-01-13 19:00:00,
2013-01-13 13:02:00,6.3,0.9,30.16,West,277,3.0,10.0,78,0.00,,---,0.00,VWS V14.00,2013-01-13 19:02:00,
2013-01-13 13:07:00,6.5,1.1,30.16,West,270,4.0,10.0,78,0.00,,---,0.00,VWS V14.00,2013-01-13 19:07:00,
2013-01-13 13:12:00,6.7,1.0,30.17,NW,311,1.0,10.0,77,0.00,,---,0.00,VWS V14.00,2013-01-13 19:12:00,
2013-01-13 13:17:00,6.6,0.9,30.17,NW,305,5.0,10.0,77,0.00,,---,0.00,VWS V14.00,2013-01-13 19:17:00,
2013-01-13 13:22:00,6.5,0.8,30.17,NW,314,11.0,11.0,77,0.00,,---,0.00,VWS V14.00,2013-01-13 19:22:00,
2013-01-13 13:27:00,6.5,0.8,30.17,West,280,4.0,4.0,77,0.00,,---,0.00,VWS V14.00,2013-01-13 19:27:00,
2013-01-13 13:30:00,6.5,0.8,30.17,WNW,302,0.0,11.0,77,0.00,,---,0.00,VWS V14.00,2013-01-13 19:30:00,
2013-01-13 13:32:00,6.7,1.0,30.17,NW,319,3.0,7.0,77,0.00,,---,0.00,VWS V14.00,2013-01-13 19:32:00,
2013-01-13 13:37:00,6.8,1.1,30.16,NW,313,3.0,7.0,77,0.00,,---,0.00,VWS V14.00,2013-01-13 19:37:00,
2013-01-13 13:42:00,6.8,1.1,30.17,WNW,300,5.0,9.0,77,0.00,,---,0.00,VWS V14.00,2013-01-13 19:42:00,
2013-01-13 13:47:00,6.7,1.0,30.17,WNW,299,1.0,10.0,77,0.00,,---,0.00,VWS V14.00,2013-01-13 19:47:00,
2013-01-13 13:52:00,6.8,1.1,30.17,WNW,294,0.0,10.0,77,0.00,,---,0.00,VWS V14.00,2013-01-13 19:52:00,
2013-01-13 13:57:00,6.9,1.2,30.17,WNW,289,0.0,3.0,77,0.00,,---,0.00,VWS V14.00,2013-01-13 19:57:00,
2013-01-13 14:00:00,6.9,1.2,30.17,WNW,290,2.0,10.0,77,0.00,,---,0.00,VWS V14.00,2013-01-13 20:00:00,
2013-01-13 14:02:00,6.9,1.2,30.17,WSW,255,0.0,9.0,77,0.00,,---,0.00,VWS V14.00,2013-01-13 20:02:00,
2013-01-13 14:07:00,7.0,1.3,30.18,NW,308,2.0,9.0,77,0.00,,---,0.00,VWS V14.00,2013-01-13 20:07:00,
2013-01-13 14:12:00,7.0,1.3,30.18,West,268,6.0,12.0,77,0.00,,---,0.00,VWS V14.00,2013-01-13 20:12:00,
2013-01-13 14:17:00,6.9,1.2,30.18,NW,309,6.0,12.0,77,0.00,,---,0.00,VWS V14.00,2013-01-13 20:17:00,
2013-01-13 14:22:00,6.8,1.1,30.18,West,278,11.0,12.0,77,0.00,,---,0.00,VWS V14.00,2013-01-13 20:22:00,
2013-01-13 14:27:00,6.7,1.0,30.18,West,271,8.0,10.0,77,0.00,,---,0.00,VWS V14.00,2013-01-13 20:27:00,
2013-01-13 14:30:00,6.7,1.0,30.18,West,274,9.0,12.0,77,0.00,,---,0.00,VWS V14.00,2013-01-13 20:30:00,
2013-01-13 14:32:00,6.8,1.1,30.19,WNW,302,2.0,11.0,77,0.00,,---,0.00,VWS V14.00,2013-01-13 20:32:00,
2013-01-13 14:37:00,6.7,1.0,30.19,WNW,285,0.0,11.0,77,0.00,,---,0.00,VWS V14.00,2013-01-13 20:37:00,
2013-01-13 14:42:00,6.6,0.9,30.19,WNW,298,4.0,11.0,77,0.00,,---,0.00,VWS V14.00,2013-01-13 20:42:00,
2013-01-13 14:47:00,6.7,1.0,30.19,WNW,300,10.0,11.0,77,0.00,,---,0.00,VWS V14.00,2013-01-13 20:47:00,
2013-01-13 14:52:00,6.8,1.1,30.20,West,280,4.0,11.0,77,0.00,,---,0.00,VWS V14.00,2013-01-13 20:52:00,
2013-01-13 14:57:00,7.0,1.3,30.20,NW,311,5.0,5.0,77,0.00,,---,0.00,VWS V14.00,2013-01-13 20:57:00,
2013-01-13 15:00:00,7.0,1.3,30.19,NW,308,3.0,11.0,77,0.00,,---,0.00,VWS V14.00,2013-01-13 21:00:00,
2013-01-13 15:02:00,7.0,1.3,30.20,WNW,286,4.0,10.0,77,0.00,,---,0.00,VWS V14.00,2013-01-13 21:02:00,
2013-01-13 15:07:00,6.9,1.2,30.20,West,279,3.0,10.0,77,0.00,,---,0.00,VWS V14.00,2013-01-13 21:07:00,
2013-01-13 15:12:00,7.1,1.4,30.20,WNW,302,3.0,10.0,77,0.00,,---,0.00,VWS V14.00,2013-01-13 21:12:00,
2013-01-13 15:17:00,7.3,1.6,30.20,West,275,3.0,10.0,77,0.00,,---,0.00,VWS V14.00,2013-01-13 21:17:00,
2013-01-13 15:22:00,7.4,1.7,30.20,NW,311,2.0,10.0,77,0.00,,---,0.00,VWS V14.00,2013-01-13 21:22:00,
2013-01-13 15:27:00,7.4,1.4,30.21,WNW,288,7.0,7.0,76,0.00,,---,0.00,VWS V14.00,2013-01-13 21:27:00,
2013-01-13 15:30:00,7.4,1.4,30.21,WNW,295,2.0,11.0,76,0.00,,---,0.00,VWS V14.00,2013-01-13 21:30:00,
2013-01-13 15:32:00,7.5,1.5,30.21,NW,319,3.0,7.0,76,0.00,,---,0.00,VWS V14.00,2013-01-13 21:32:00,
2013-01-13 15:37:00,7.8,1.8,30.21,West,271,2.0,9.0,76,0.00,,---,0.00,VWS V14.00,2013-01-13 21:37:00,
2013-01-13 15:42:00,7.8,1.8,30.21,NW,314,4.0,10.0,76,0.00,,---,0.00,VWS V14.00,2013-01-13 21:42:00,
2013-01-13 15:47:00,7.8,1.8,30.21,West,272,1.0,10.0,76,0.00,,---,0.00,VWS V14.00,2013-01-13 21:47:00,
2013-01-13 15:52:00,7.7,1.7,30.22,West,266,6.0,11.0,76,0.00,,---,0.00,VWS V14.00,2013-01-13 21:52:00,
2013-01-13 15:57:00,7.7,1.7,30.22,West,267,5.0,7.0,76,0.00,,---,0.00,VWS V14.00,2013-01-13 21:57:00,
2013-01-13 16:00:00,7.7,1.7,30.22,WNW,284,3.0,11.0,76,0.00,,---,0.00,VWS V14.00,2013-01-13 22:00:00,
2013-01-13 16:02:00,7.7,1.7,30.22,WNW,283,3.0,7.0,76,0.00,,---,0.00,VWS V14.00,2013-01-13 22:02:00,
2013-01-13 16:07:00,7.8,1.8,30.22,West,270,3.0,7.0,76,0.00,,---,0.00,VWS V14.00,2013-01-13 22:07:00,
2013-01-13 16:12:00,7.6,1.4,30.22,West,276,1.0,7.0,75,0.00,,---,0.00,VWS V14.00,2013-01-13 22:12:00,
2013-01-13 16:17:00,7.4,1.4,30.22,WNW,301,2.0,7.0,76,0.00,,---,0.00,VWS V14.00,2013-01-13 22:17:00,
2013-01-13 16:22:00,7.4,1.4,30.23,NW,312,4.0,7.0,76,0.00,,---,0.00,VWS V14.00,2013-01-13 22:22:00,
2013-01-13 16:27:00,7.4,1.4,30.23,WNW,289,1.0,2.0,76,0.00,,---,0.00,VWS V14.00,2013-01-13 22:27:00,
2013-01-13 16:30:00,7.4,1.4,30.23,WNW,289,2.0,10.0,76,0.00,,---,0.00,VWS V14.00,2013-01-13 22:30:00,
2013-01-13 16:32:00,7.4,1.4,30.23,NW,309,1.0,3.0,76,0.00,,---,0.00,VWS V14.00,2013-01-13 22:32:00,
2013-01-13 16:37:00,7.2,1.2,30.23,NW,309,2.0,5.0,76,0.00,,---,0.00,VWS V14.00,2013-01-13 22:37:00,
2013-01-13 16:42:00,7.1,1.4,30.23,WNW,298,0.0,7.0,77,0.00,,---,0.00,VWS V14.00,2013-01-13 22:42:00,
2013-01-13 16:47:00,7.1,1.4,30.23,WNW,288,3.0,7.0,77,0.00,,---,0.00,VWS V14.00,2013-01-13 22:47:00,
2013-01-13 16:52:00,7.0,1.3,30.24,West,275,0.0,7.0,77,0.00,,---,0.00,VWS V14.00,2013-01-13 22:52:00,
2013-01-13 16:57:00,6.9,1.2,30.24,West,275,0.0,0.0,77,0.00,,---,0.00,VWS V14.00,2013-01-13 22:57:00,
2013-01-13 17:00:00,6.9,1.2,30.24,West,275,0.0,7.0,77,0.00,,---,0.00,VWS V14.00,2013-01-13 23:00:00,
2013-01-13 17:02:00,6.9,1.5,30.23,WNW,287,0.0,3.0,78,0.00,,---,0.00,VWS V14.00,2013-01-13 23:02:00,
2013-01-13 17:07:00,6.8,1.4,30.24,WNW,284,0.0,4.0,78,0.00,,---,0.00,VWS V14.00,2013-01-13 23:07:00,
2013-01-13 17:12:00,6.7,1.3,30.24,WNW,283,2.0,4.0,78,0.00,,---,0.00,VWS V14.00,2013-01-13 23:12:00,
2013-01-13 17:17:00,6.7,1.6,30.24,WNW,283,0.0,4.0,79,0.00,,---,0.00,VWS V14.00,2013-01-13 23:17:00,
2013-01-13 17:22:00,6.6,1.5,30.24,WNW,283,0.0,4.0,79,0.00,,---,0.00,VWS V14.00,2013-01-13 23:22:00,
2013-01-13 17:27:00,6.5,1.4,30.24,WNW,283,1.0,1.0,79,0.00,,---,0.00,VWS V14.00,2013-01-13 23:27:00,
2013-01-13 17:30:00,6.5,1.4,30.24,WNW,283,1.0,4.0,79,0.00,,---,0.00,VWS V14.00,2013-01-13 23:30:00,
2013-01-13 17:32:00,6.5,1.4,30.24,WNW,282,2.0,3.0,79,0.00,,---,0.00,VWS V14.00,2013-01-13 23:32:00,
2013-01-13 17:37:00,6.6,1.5,30.24,West,275,1.0,5.0,79,0.00,,---,0.00,VWS V14.00,2013-01-13 23:37:00,
2013-01-13 17:42:00,6.6,1.8,30.24,West,274,1.0,5.0,80,0.00,,---,0.00,VWS V14.00,2013-01-13 23:42:00,
2013-01-13 17:47:00,6.6,1.8,30.24,West,274,1.0,5.0,80,0.00,,---,0.00,VWS V14.00,2013-01-13 23:47:00,
2013-01-13 17:52:00,6.6,1.8,30.24,West,274,0.0,5.0,80,0.00,,---,0.00,VWS V14.00,2013-01-13 23:52:00,
2013-01-13 17:57:00,6.6,1.8,30.24,West,274,0.0,0.0,80,0.00,,---,0.00,VWS V14.00,2013-01-13 23:57:00,
2013-01-13 18:00:00,6.5,1.7,30.24,West,274,0.0,5.0,80,0.00,,---,0.00,VWS V14.00,2013-01-14 00:00:00,
2013-01-13 18:02:00,6.5,1.7,30.24,West,274,2.0,4.0,80,0.00,,---,0.00,VWS V14.00,2013-01-14 00:02:00,
2013-01-13 18:07:00,6.5,1.7,30.24,West,273,1.0,4.0,80,0.00,,---,0.00,VWS V14.00,2013-01-14 00:07:00,
2013-01-13 18:12:00,6.5,1.7,30.25,West,273,3.0,4.0,80,0.00,,---,0.00,VWS V14.00,2013-01-14 00:12:00,
2013-01-13 18:30:00,6.4,1.8,30.24,West,270,1.0,5.0,81,0.00,,---,0.00,VWS V14.00,2013-01-14 00:30:00,
2013-01-13 19:00:00,6.6,2.0,30.25,West,270,1.0,6.0,81,0.00,,---,0.00,VWS V14.00,2013-01-14 01:00:00,
2013-01-13 19:30:00,6.7,1.9,30.25,West,270,1.0,5.0,80,0.00,,---,0.00,VWS V14.00,2013-01-14 01:30:00,
2013-01-13 20:00:00,6.9,2.0,30.27,West,270,2.0,7.0,80,0.00,,---,0.00,VWS V14.00,2013-01-14 02:00:00,
2013-01-13 20:30:00,7.0,2.4,30.27,West,270,1.0,8.0,81,0.00,,---,0.00,VWS V14.00,2013-01-14 02:30:00,
2013-01-13 21:00:00,6.6,2.3,30.27,West,270,1.0,4.0,82,0.00,,---,0.00,VWS V14.00,2013-01-14 03:00:00,
2013-01-13 21:30:00,5.8,1.8,30.28,West,270,0.0,2.0,83,0.00,,---,0.00,VWS V14.00,2013-01-14 03:30:00,
2013-01-13 22:00:00,5.1,1.6,30.28,West,270,0.0,0.0,85,0.00,,---,0.00,VWS V14.00,2013-01-14 04:00:00,
2013-01-13 22:30:00,4.5,1.0,30.29,West,270,0.0,0.0,85,0.00,,---,0.00,VWS V14.00,2013-01-14 04:30:00,
2013-01-13 23:00:00,4.2,1.2,30.29,West,270,0.0,0.0,87,0.00,,---,0.00,VWS V14.00,2013-01-14 05:00:00,
2013-01-13 23:30:00,4.2,1.2,30.30,West,270,0.0,0.0,87,0.00,,---,0.00,VWS V14.00,2013-01-14 05:30:00,